DECAYED

CZ-4B R/B, 45858 (Decayed)

Orbit data source: Space-Track

CZ-4B R/B, 45858 was space debris in LEO originally from a launch on Fri, 03 Jul 2020 UTC launched from the Taiyaun Space Center, China (TSC). Debris objects in space refer to the collection of defunct objects orbiting the Earth. Examples of debris include non-operational satellites, rocket bodies, and fragments generated from explosions, collisions, or faulty payload assembly.

Not visible in the next 10 days
Identifier
45858, 2020-042C
Orbit
Decayed
Last TLE update
9 months ago
Origin
Manufacturer
SAST
Mission
Decayed spacecraft
Bus & Motor
CZ-4 STAGE 3, Unknown motor
Mass
~1,000 kg wet, ~1,000 kg dry
Launch date (UTC)
2020-07-03 (5 years ago)
Launch vehicle
Unknown
Launch site
Taiyaun Space Center, China (TSC)
Object type
Payload
Rocket body
Debris
Shape & HBR
Cyl, 4.932 m
Radar Cross Section
14.536 m², Large (>1 m²)

Expand to show TLE details & history

TLE from 9 months ago
0 CZ-4B R/B
1 45858U 20042C   24293.34231753  .79941725  35277-5  21084-3 0  9997
2 45858  97.9811 151.7125 0010887 209.0072 236.4416 16.61273201240239
Epoch: 2024-10-19T08:12Z
TLE epoch observation values (Epoch: 2024-10-19T08:12:56.234Z)
Latitude
80.81768°
Longitude
-59.3998°
Altitude
127.138 km
Speed
7.835 km/s
True Right ascension
06h 08m 32s
True Declination
80° 45' 29"
Sunlit
Object was in full shadow at epoch
Visualization orbit readout
Visualization observer readout
Orbital elements
Apogee altitude
113.685 km
Perigee altitude
99.565 km
Semi-major axis
6,484.762 km
Eccentricity
0.00109
Inclination
97.9811°
RAAN
151.7125°
Arg. of periapsis
209.0072°
True anomaly
Unknown
Mean anomaly
236.4416°
Eccentric anomaly
Unknown
Mean motion
4.15625 °/min
Orbital period
86.62 mins
BSTAR
0.00021084
Loading maneuver chart data...
Loading SW <> Apogee altitude chart data...
Loading historical data...
Loading historical data...
Loading historical data...
Loading historical data...
Loading historical data...
Loading historical data...
Loading historical data...
Other satellites on launch #42 in the year 2020 (2020-07-03 UTC)

CZ-4B R/B Visibility

Observer location: undefined°, undefined°

This satellite is decayed
Span
Click to sort rows by Start time (UTC) header in descending order
Start Az.
Max El. time (UTC)
Max El. Az.
Max El.
End time (UTC)
End Az.
|